GPS BIIR-4 (PRN 20)

Last updated on Tue Jul 01 2025 00:03:13 GMT+0000 (Coordinated Universal Time)

1 26360U 00025A 25181.59344825 -.00000097 00000+0 00000+0 0 9996 2 26360 54.9446 33.5132 0036357 232.9146 135.3597 2.00549190184229
UTC large
Height (km)
Speed (km/s)
/
Latitude / Longitude
Inclination (degrees)
Orbital Period (minutes)
Azimuth
Elevation
Range (km)
Doppler Factor

Next 0 passes for location: London (51.5072 / 0.1276)

Sorry there are no passes over London.